Content
SEND FEEDBACK

Daily
Averages
Monthly
Summary
Sweden

STRANGNAS, SWEDEN


Home > Europe > Sweden
Elevation: 80 feet     Latitude: 59 18N     Longitude: 017 06E

WEATHER
 
SELECT A DAY
Number of Records: 237,042;   Date Range: 7/1/96 - 9/19/14
 
SHARE

PRINT THIS DATA

[ ← Previous Day ]
WEATHER ALMANAC - JANUARY 31, 2013
[ Next Day → ]
[ °C ]   °F
Weather ElementAverageHighLow
Temperature35.3 °F39.2 °F (12:50 am)28.4 °F (11:20 pm)
Dewpoint29.5 °F35.6 °F (10:50 am)23 °F (5:20 pm)
Humidity80 %100 % (10:50 am)65 % (3:20 pm)
Barometer28.99 in29.24 in (10:50 pm)28.82 in (3:50 am)
Wind Speed9.1 mph16.1 mph (1:20 am)
Weather ElementAverage
Visibility5.9 mi
Wind DirectionWSW (255.1 °)

Weather ElementTotal
Precipitation---
Heating Degree Days31.2 (Base 65)
Averaged from 47 records on January 31, 2013
WEATHER CONDITIONS BREAKOUT
WIND DIRECTION BREAKOUT
WEATHER BY HOUR - JANUARY 31, 2013
[ °C ]   °F
Local TimeTemperatureDewpointHumidityBarometerVisibilityWind DirectionWind SpeedGust SpeedPrecipitationEventsConditions
12:50 AM39.2 °F32.0 °F75 %28.85 in6.2 miSW (220°)15.0 mphOvercast
1:20 AM39.2 °F32.0 °F75 %28.85 in6.2 miSW (220°)16.1 mphOvercast
1:50 AM39.2 °F32.0 °F75 %28.85 in6.2 miSSW (210°)13.8 mphOvercast
2:20 AM39.2 °F32.0 °F75 %28.85 in6.2 miSSW (200°)10.4 mphOvercast
2:50 AM39.2 °F32.0 °F75 %28.85 in6.2 miSSW (210°)11.5 mphOvercast
3:20 AM39.2 °F32.0 °F75 %28.85 in6.2 miSSW (210°)12.7 mphOvercast
3:50 AM37.4 °F32.0 °F81 %28.82 in6.2 miSSW (200°)11.5 mphOvercast
4:20 AM37.4 °F32.0 °F81 %28.82 in6.2 miSouth (190°)11.5 mphOvercast
4:50 AM37.4 °F33.8 °F87 %28.85 in6.2 miSSW (200°)11.5 mphOvercast
5:20 AM37.4 °F33.8 °F87 %28.85 in6.2 miSouth (190°)11.5 mphOvercast
5:50 AM37.4 °F33.8 °F87 %28.85 in6.2 miSouth (180°)11.5 mphOvercast
6:20 AM37.4 °F33.8 °F87 %28.85 in6.2 miSouth (190°)12.7 mphOvercast
6:50 AM37.4 °F33.8 °F87 %28.85 in6.2 miSouth (190°)9.2 mphOvercast
7:20 AM35.6 °F33.8 °F93 %28.85 in6.2 miSouth (180°)6.9 mphOvercast
7:50 AM35.6 °F33.8 °F93 %28.85 in3.7 miSouth (180°)5.8 mphOvercast
8:20 AM35.6 °F33.8 °F93 %28.85 in3.1 miSouth (190°)4.6 mphRainLight Rain
8:50 AM35.6 °F33.8 °F93 %28.88 in6.2 miSSW (200°)4.6 mphOvercast
9:20 AM35.6 °F33.8 °F93 %28.88 in5.6 miSSW (210°)5.8 mphOvercast
9:50 AM35.6 °F33.8 °F93 %28.88 in6.2 miSSW (200°)3.5 mphOvercast
10:20 AM35.6 °F33.8 °F93 %28.91 inSW (230°)3.5 mphOvercast
10:50 AM35.6 °F35.6 °F100 %28.91 in3.1 miWSW (250°)4.6 mphRainLight Rain
11:20 AM35.6 °F35.6 °F100 %28.94 in6.2 miWest (260°)4.6 mphOvercast
11:50 AM37.4 °F35.6 °F93 %28.94 in6.2 miWNW (300°)5.8 mphMostly Cloudy
12:20 PM37.4 °F35.6 °F93 %28.94 in6.2 miNW (320°)10.4 mphMostly Cloudy
12:50 PM37.4 °F33.8 °F87 %28.97 in6.2 miNW (320°)12.7 mphMostly Cloudy
1:20 PM37.4 °F33.8 °F87 %28.97 in6.2 miNNW (330°)12.7 mphMostly Cloudy
1:50 PM37.4 °F32.0 °F81 %29.00 in6.2 miNNW (330°)16.1 mphMostly Cloudy
2:20 PM37.4 °F32.0 °F81 %29.00 in6.2 miNW (320°)11.5 mphMostly Cloudy
2:50 PM37.4 °F28.4 °F70 %29.03 in6.2 miNW (310°)16.1 mphScattered Clouds
3:20 PM37.4 °F26.6 °F65 %29.06 in6.2 miNW (320°)16.1 mphScattered Clouds
3:50 PM35.6 °F24.8 °F65 %29.06 in6.2 miNW (310°)13.8 mphScattered Clouds
4:20 PM35.6 °F24.8 °F65 %29.09 inNW (310°)9.2 mphClear
4:50 PM35.6 °F24.8 °F65 %29.09 inNW (310°)11.5 mphClear
5:20 PM33.8 °F23.0 °F65 %29.12 inWNW (290°)8.1 mphClear
5:50 PM33.8 °F23.0 °F65 %29.12 inWNW (290°)9.2 mphClear
6:20 PM32.0 °F23.0 °F69 %29.12 inWNW (300°)8.1 mphClear
6:50 PM32.0 °F23.0 °F69 %29.15 inWNW (290°)8.1 mphClear
7:20 PM32.0 °F23.0 °F69 %29.15 inWNW (300°)6.9 mphClear
7:50 PM32.0 °F23.0 °F69 %29.15 inNW (310°)6.9 mphClear
8:20 PM32.0 °F23.0 °F69 %29.18 inWest (280°)5.8 mphClear
8:50 PM30.2 °F23.0 °F75 %29.18 inWNW (290°)5.8 mphClear
9:20 PM30.2 °F23.0 °F75 %29.21 inWNW (290°)3.5 mphClear
9:50 PM30.2 °F23.0 °F75 %29.21 inWest (280°)3.5 mphClear
10:20 PM30.2 °F23.0 °F75 %29.21 inWNW (290°)3.5 mphClear
10:50 PM30.2 °F23.0 °F75 %29.24 in6.2 miWNW (290°)5.8 mph
11:20 PM28.4 °F23.0 °F80 %29.24 in6.2 miWSW (240°)5.8 mph
11:50 PM28.4 °F23.0 °F80 %29.24 in6.2 miWest (260°)5.8 mph
Hourly data recorded from ESOW, located miles away from Strangnas, Sweden







STORIES FROM OUR PARTNERS